• In Hungary
  • List of Countries
  • For 7 days
  • Water Temperature
  • Satellite Maps
  • Weather Map
  • News
  • Weather Widgets
  • user-avatar
    Login

    Hourly Weather Cleveland

    Today, 22 October, Sunday

    Time Temperature Precipitation Wind Pressure Humidity
    00:00 +15°C° 4.2 mm 8 mps 738 mmHg 78%
    01:00 +14°C° 0.1 mm 7 mps 739 mmHg 75%
    02:00 +14°C° 0.1 mm 6 mps 739 mmHg 73%
    03:00 +13°C° 0.1 mm 4 mps 740 mmHg 71%
    04:00 +13°C° 0 mm 4 mps 740 mmHg 70%
    05:00 +12°C° 0 mm 4 mps 741 mmHg 70%
    06:00 +12°C° 0 mm 3 mps 742 mmHg 69%
    07:00 +13°C° 0 mm 4 mps 742 mmHg 64%
    08:00 +14°C° 0 mm 4 mps 743 mmHg 59%
    09:00 +15°C° 0 mm 5 mps 744 mmHg 55%
    10:00 +16°C° 0 mm 5 mps 744 mmHg 48%
    11:00 +19°C° 0 mm 5 mps 744 mmHg 41%
    12:00 +21°C° 0 mm 4 mps 744 mmHg 33%
    13:00 +21°C° 0 mm 4 mps 744 mmHg 32%
    14:00 +21°C° 0 mm 4 mps 743 mmHg 30%
    15:00 +22°C° 0 mm 3 mps 743 mmHg 29%
    16:00 +20°C° 0 mm 3 mps 743 mmHg 32%
    17:00 +18°C° 0 mm 2 mps 743 mmHg 35%
    18:00 +18°C° 0 mm 1 mps 743 mmHg 38%
    19:00 +16°C° 0 mm 1 mps 743 mmHg 39%
    20:00 +16°C° 0 mm 1 mps 743 mmHg 39%
    21:00 +15°C° 0 mm 1 mps 743 mmHg 39%
    22:00 +15°C° 0 mm 1 mps 743 mmHg 40%
    23:00 +14°C° 0 mm 2 mps 743 mmHg 41%

    Tomorrow, 23 October, Monday

    Time Temperature Precipitation Wind Pressure Humidity
    00:00 +14°C° 0 mm 2 mps 743 mmHg 42%
    01:00 +13°C° 0 mm 3 mps 743 mmHg 44%
    02:00 +12°C° 0 mm 3 mps 743 mmHg 45%
    03:00 +12°C° 0 mm 3 mps 742 mmHg 46%
    04:00 +12°C° 0 mm 3 mps 742 mmHg 47%
    05:00 +12°C° 0 mm 3 mps 742 mmHg 47%
    06:00 +11°C° 0 mm 3 mps 741 mmHg 48%
    07:00 +13°C° 0 mm 4 mps 742 mmHg 47%
    08:00 +14°C° 0 mm 5 mps 742 mmHg 45%
    09:00 +16°C° 0 mm 6 mps 742 mmHg 44%
    10:00 +19°C° 0 mm 6 mps 742 mmHg 42%
    11:00 +21°C° 0 mm 6 mps 742 mmHg 40%
    12:00 +23°C° 0 mm 6 mps 743 mmHg 37%
    13:00 +23°C° 0 mm 6 mps 742 mmHg 37%
    14:00 +23°C° 0 mm 6 mps 742 mmHg 37%
    15:00 +23°C° 0 mm 7 mps 742 mmHg 37%
    16:00 +22°C° 0 mm 6 mps 742 mmHg 40%
    17:00 +20°C° 0 mm 5 mps 743 mmHg 44%
    18:00 +18°C° 0 mm 4 mps 743 mmHg 47%
    19:00 +17°C° 0 mm 4 mps 744 mmHg 46%
    20:00 +15°C° 0 mm 4 mps 744 mmHg 44%
    21:00 +14°C° 0 mm 4 mps 745 mmHg 43%
    22:00 +14°C° 0 mm 4 mps 745 mmHg 42%
    23:00 +13°C° 0 mm 4 mps 745 mmHg 41%

    Day after tomorrow, 24 October, Tuesday

    Time Temperature Precipitation Wind Pressure Humidity
    00:00 +12°C° 0 mm 4 mps 746 mmHg 40%
    01:00 +12°C° 0 mm 4 mps 746 mmHg 39%
    02:00 +11°C° 0 mm 4 mps 746 mmHg 38%
    03:00 +10°C° 0 mm 5 mps 746 mmHg 37%
    04:00 +10°C° 0 mm 5 mps 746 mmHg 36%
    05:00 +10°C° 0 mm 5 mps 746 mmHg 36%
    06:00 +10°C° 0 mm 6 mps 746 mmHg 35%
    07:00 +11°C° 0 mm 7 mps 746 mmHg 36%
    08:00 +12°C° 0 mm 8 mps 747 mmHg 36%
    09:00 +13°C° 0 mm 8 mps 747 mmHg 37%
    10:00 +15°C° 0 mm 8 mps 747 mmHg 35%
    11:00 +16°C° 0 mm 8 mps 747 mmHg 34%
    12:00 +17°C° 0 mm 8 mps 747 mmHg 33%
    13:00 +17°C° 0 mm 8 mps 746 mmHg 32%
    14:00 +17°C° 0 mm 8 mps 746 mmHg 31%
    15:00 +17°C° 0 mm 8 mps 745 mmHg 30%
    16:00 +16°C° 0 mm 6 mps 745 mmHg 34%
    17:00 +14°C° 0 mm 5 mps 745 mmHg 37%
    18:00 +13°C° 0 mm 4 mps 744 mmHg 41%
    19:00 +12°C° 0 mm 3 mps 744 mmHg 41%
    20:00 +11°C° 0 mm 3 mps 745 mmHg 42%
    21:00 +11°C° 0 mm 3 mps 745 mmHg 42%
    22:00 +10°C° 0 mm 3 mps 744 mmHg 42%
    23:00 +10°C° 0 mm 3 mps 744 mmHg 42%

    25 October, Wednesday

    Time Temperature Precipitation Wind Pressure Humidity
    00:00 +10°C° 0 mm 3 mps 744 mmHg 42%
    01:00 +9°C° 0 mm 3 mps 743 mmHg 41%
    02:00 +9°C° 0 mm 3 mps 743 mmHg 41%
    03:00 +8°C° 0 mm 4 mps 742 mmHg 41%
    04:00 +8°C° 0 mm 4 mps 741 mmHg 39%
    05:00 +8°C° 0 mm 4 mps 741 mmHg 38%
    06:00 +10°C° 0 mm 4 mps 740 mmHg 36%
    07:00 +10°C° 0 mm 5 mps 740 mmHg 38%
    08:00 +13°C° 0 mm 6 mps 740 mmHg 39%
    09:00 +15°C° 0 mm 7 mps 740 mmHg 40%
    10:00 +17°C° 0 mm 7 mps 739 mmHg 38%
    11:00 +21°C° 0 mm 7 mps 739 mmHg 35%
    12:00 +23°C° 0 mm 7 mps 738 mmHg 33%
    13:00 +24°C° 0 mm 6 mps 738 mmHg 32%
    14:00 +24°C° 0 mm 6 mps 737 mmHg 32%
    15:00 +26°C° 0 mm 5 mps 737 mmHg 31%
    16:00 +23°C° 0 mm 4 mps 737 mmHg 36%
    17:00 +21°C° 0 mm 3 mps 737 mmHg 40%
    18:00 +19°C° 0 mm 2 mps 737 mmHg 45%
    19:00 +18°C° 0 mm 2 mps 737 mmHg 47%
    20:00 +17°C° 0 mm 2 mps 737 mmHg 49%
    21:00 +16°C° 0 mm 2 mps 737 mmHg 51%
    22:00 +15°C° 0 mm 2 mps 737 mmHg 53%
    23:00 +13°C° 0 mm 3 mps 737 mmHg 56%

    26 October, Thursday

    Time Temperature Precipitation Wind Pressure Humidity
    00:00 +12°C° 0 mm 3 mps 736 mmHg 58%
    01:00 +12°C° 0 mm 3 mps 736 mmHg 58%
    02:00 +11°C° 0 mm 3 mps 735 mmHg 58%
    03:00 +11°C° 0 mm 4 mps 735 mmHg 59%
    04:00 +11°C° 0 mm 4 mps 735 mmHg 60%
    05:00 +11°C° 0 mm 4 mps 734 mmHg 62%
    06:00 +11°C° 0 mm 4 mps 734 mmHg 64%
    07:00 +13°C° 0 mm 5 mps 734 mmHg 61%
    08:00 +14°C° 0 mm 6 mps 734 mmHg 59%
    09:00 +16°C° 0 mm 7 mps 734 mmHg 56%
    10:00 +18°C° 0 mm 7 mps 733 mmHg 51%
    11:00 +22°C° 0 mm 8 mps 733 mmHg 45%
    12:00 +24°C° 0 mm 8 mps 732 mmHg 40%
    13:00 +26°C° 0 mm 8 mps 732 mmHg 38%
    14:00 +27°C° 0 mm 7 mps 731 mmHg 37%
    15:00 +28°C° 0 mm 7 mps 730 mmHg 35%
    16:00 +26°C° 0 mm 6 mps 731 mmHg 41%
    17:00 +23°C° 0 mm 4 mps 731 mmHg 47%
    18:00 +21°C° 0 mm 3 mps 731 mmHg 52%
    19:00 +21°C° 0 mm 5 mps 732 mmHg 50%
    20:00 +20°C° 0 mm 7 mps 733 mmHg 47%
    21:00 +19°C° 0 mm 9 mps 734 mmHg 44%
    22:00 +17°C° 0 mm 9 mps 735 mmHg 40%
    23:00 +16°C° 0 mm 8 mps 736 mmHg 36%

    27 October, Friday

    Time Temperature Precipitation Wind Pressure Humidity
    00:00 +13°C° 0 mm 8 mps 736 mmHg 32%
    01:00 +12°C° 0 mm 7 mps 737 mmHg 32%
    02:00 +11°C° 0 mm 7 mps 737 mmHg 31%
    03:00 +10°C° 0 mm 6 mps 738 mmHg 31%
    04:00 +9°C° 0 mm 6 mps 738 mmHg 32%
    05:00 +8°C° 0 mm 6 mps 739 mmHg 33%
    06:00 +7°C° 0 mm 6 mps 739 mmHg 33%
    07:00 +6°C° 0 mm 7 mps 740 mmHg 36%
    08:00 +7°C° 0 mm 8 mps 740 mmHg 39%
    09:00 +7°C° 0 mm 9 mps 741 mmHg 42%
    10:00 +8°C° 0 mm 9 mps 741 mmHg 41%
    11:00 +10°C° 0 mm 9 mps 741 mmHg 40%
    12:00 +11°C° 0 mm 9 mps 741 mmHg 39%
    13:00 +11°C° 0 mm 9 mps 740 mmHg 38%
    14:00 +11°C° 0 mm 8 mps 740 mmHg 37%
    15:00 +11°C° 0 mm 8 mps 740 mmHg 36%
    16:00 +10°C° 0 mm 7 mps 740 mmHg 37%
    17:00 +9°C° 0 mm 6 mps 741 mmHg 38%
    18:00 +8°C° 0 mm 5 mps 741 mmHg 39%
    19:00 +8°C° 0 mm 5 mps 741 mmHg 39%
    20:00 +7°C° 0 mm 5 mps 742 mmHg 38%
    21:00 +7°C° 0 mm 5 mps 742 mmHg 38%
    22:00 +6°C° 0 mm 4 mps 742 mmHg 40%
    23:00 +5°C° 0 mm 4 mps 742 mmHg 43%
    Show more